DELTA 1 DEB, 7092

Orbit data source: Space-Track

DELTA 1 DEB, 7092 is space debris in SSO originally from a launch on Tue, 06 Nov 1973 UTC launched from the Air Force Western Test Range (AFWTR). Debris objects in space refer to the collection of defunct objects orbiting the Earth. Examples of debris include non-operational satellites, rocket bodies, and fragments generated from explosions, collisions, or faulty payload assembly.

Loading next visibility...
Identifier
7092, 1973-086CL
Orbit
SSO
Country
Flag of USUS
Related business
Manufacturer
Unknown
Mission
Spacecraft
Bus & Motor
Unknown
Mass
Unknown
Launch date (UTC)
1973-11-06 (52 years ago)
Launch vehicle
Unknown
Launch site
Air Force Western Test Range (AFWTR)
Object type
Payload
Rocket body
Debris
Shape & HBR
Unknown shape, 0.1 m
Radar Cross Section
Small (<0.1 m²)

Expand to show TLE details & history
Last TLE update: 9 hours ago

TLE from 9 hours ago
0 DELTA 1 DEB
1  7092U 73086CL  25297.56929112  .00000302  00000-0  83913-3 0  9994
2  7092 101.7994 215.1212 0314536 188.2020 352.1129 13.06913058471593
Epoch: 2025-10-24T13:39Z
TLE epoch observation values (Epoch: 2025-10-24T13:39:46.752Z)
Latitude
0.08588°
Longitude
156.98194°
Altitude
1,000.675 km
Speed
7.465 km/s
True Right ascension
02h 20m 33s
True Declination
0° 05' 07"
Sunlit
Object was in full shadow at epoch
Visualization orbit readout
Latitude
Unknown
Longitude
Unknown
Altitude
Unknown
Speed
Unknown
Apparent Right ascension
Unknown
Apparent Declination
Unknown
Sunlit
N/A
Visualization observer readout
Local Sidereal Time
17:35:13
Azimuth
Unknown
Elevation
Unknown
Doppler factor
Unknown
Orbital elements
Apogee altitude
1,471.981 km
Perigee altitude
993.211 km
Semi-major axis
7,610.733 km
Eccentricity
0.03145
Inclination
101.7994°
RAAN
215.1212°
Arg. of periapsis
188.202°
True anomaly
351.59831°
Mean anomaly
352.1129°
Eccentric anomaly
351.85766°
Mean motion
3.26891 °/min
Orbital period
110.13 mins
BSTAR
0.00083913
Loading maneuver chart data...
Computing Atmospheric mass density...
Loading historical data...
Loading historical data...
Loading historical data...
Loading historical data...
Loading historical data...
Loading historical data...
Loading historical data...

Documentation

Showing up to 5 results
|